Time,TemperatureF,DewpointF,PressureIn,WindDirection,WindDirectionDegrees,WindSpeedMPH,WindSpeedGustMPH,Humidity,HourlyPrecipIn,Conditions,Clouds,dailyrainin,SolarRadiationWatts/m^2,SoftwareType,DateUTC
2015-01-30 00:00:00,41.6,31.1,30.00,WSW,251,0.0,0.0,66,0.00,,,0.00,0,wxd,2015-01-30 05:00:00,
2015-01-30 00:05:00,41.6,31.1,30.00,WSW,251,0.0,0.0,66,0.00,,,0.00,0,wxd,2015-01-30 05:05:00,
2015-01-30 00:10:00,41.8,30.9,30.00,WSW,251,0.0,0.0,65,0.00,,,0.00,0,wxd,2015-01-30 05:10:00,
2015-01-30 00:15:00,41.9,31.4,30.00,WSW,251,0.0,0.0,66,0.00,,,0.00,0,wxd,2015-01-30 05:15:00,
2015-01-30 00:20:00,41.9,32.8,29.98,WSW,251,0.0,1.0,70,0.00,,,0.00,0,wxd,2015-01-30 05:20:00,
2015-01-30 00:25:00,41.9,32.8,29.98,WSW,251,0.0,0.0,70,0.00,,,0.00,0,wxd,2015-01-30 05:25:00,
2015-01-30 00:30:00,42.1,33.0,29.98,WSW,251,0.0,1.0,70,0.00,,,0.00,0,wxd,2015-01-30 05:30:00,
2015-01-30 00:35:00,42.1,32.7,29.98,WSW,251,0.0,0.0,69,0.00,,,0.00,0,wxd,2015-01-30 05:35:00,
2015-01-30 00:40:00,42.3,32.5,29.98,WSW,251,0.0,0.0,68,0.00,,,0.00,0,wxd,2015-01-30 05:40:00,
2015-01-30 00:45:00,42.5,32.3,29.98,WSW,251,0.0,0.0,67,0.00,,,0.00,0,wxd,2015-01-30 05:45:00,
2015-01-30 00:50:00,42.6,32.0,29.98,WSW,251,0.0,0.0,66,0.00,,,0.00,0,wxd,2015-01-30 05:50:00,
2015-01-30 00:55:00,42.9,32.0,29.98,WSW,251,0.0,0.0,65,0.00,,,0.00,0,wxd,2015-01-30 05:55:00,
2015-01-30 01:00:00,43.1,32.1,29.98,WSW,251,0.0,1.0,65,0.00,,,0.00,0,wxd,2015-01-30 06:00:00,
2015-01-30 01:05:00,43.2,32.2,29.98,WSW,251,0.0,1.0,65,0.00,,,0.00,0,wxd,2015-01-30 06:05:00,
2015-01-30 01:10:00,43.3,32.3,29.98,WSW,251,0.0,1.0,65,0.00,,,0.00,0,wxd,2015-01-30 06:10:00,
2015-01-30 01:15:00,43.6,33.4,29.98,WSW,251,0.0,0.0,67,0.00,,,0.00,0,wxd,2015-01-30 06:15:00,
2015-01-30 01:20:00,43.6,34.1,29.97,WSW,251,0.0,1.0,69,0.00,,,0.00,0,wxd,2015-01-30 06:20:00,
2015-01-30 01:25:00,43.5,34.0,29.97,WSW,251,0.0,1.0,69,0.00,,,0.00,0,wxd,2015-01-30 06:25:00,
2015-01-30 01:30:00,43.3,34.5,29.97,WSW,251,0.0,1.0,71,0.00,,,0.00,0,wxd,2015-01-30 06:30:00,
2015-01-30 01:35:00,43.2,33.7,29.97,WSW,251,0.0,1.0,69,0.00,,,0.00,0,wxd,2015-01-30 06:35:00,
2015-01-30 01:40:00,43.2,33.0,29.97,WSW,251,0.0,1.0,67,0.00,,,0.00,0,wxd,2015-01-30 06:40:00,
2015-01-30 01:45:00,43.3,33.5,29.97,WSW,251,0.0,0.0,68,0.00,,,0.00,0,wxd,2015-01-30 06:45:00,
2015-01-30 01:50:00,43.5,32.9,29.97,WSW,251,0.0,1.0,66,0.00,,,0.00,0,wxd,2015-01-30 06:50:00,
2015-01-30 01:55:00,43.6,33.4,29.97,WSW,251,0.0,1.0,67,0.00,,,0.00,0,wxd,2015-01-30 06:55:00,
2015-01-30 02:00:00,43.9,33.7,29.97,WSW,251,0.0,0.0,67,0.00,,,0.00,0,wxd,2015-01-30 07:00:00,
2015-01-30 02:05:00,43.9,33.3,29.96,WSW,251,0.0,1.0,66,0.00,,,0.00,0,wxd,2015-01-30 07:05:00,
2015-01-30 02:10:00,44.1,34.2,29.96,WSW,251,0.0,0.0,68,0.00,,,0.00,0,wxd,2015-01-30 07:10:00,
2015-01-30 02:15:00,43.9,34.0,29.96,WSW,251,0.0,0.0,68,0.00,,,0.00,0,wxd,2015-01-30 07:15:00,
2015-01-30 02:20:00,43.8,34.7,29.96,WSW,251,0.0,0.0,70,0.00,,,0.00,0,wxd,2015-01-30 07:20:00,
2015-01-30 02:25:00,43.6,35.5,29.96,WSW,251,0.0,0.0,73,0.00,,,0.00,0,wxd,2015-01-30 07:25:00,
2015-01-30 02:30:00,43.5,36.1,29.96,WSW,251,0.0,1.0,75,0.00,,,0.00,0,wxd,2015-01-30 07:30:00,
2015-01-30 02:35:00,43.5,36.4,29.96,WSW,251,0.0,1.0,76,0.00,,,0.00,0,wxd,2015-01-30 07:35:00,
2015-01-30 02:40:00,43.3,36.9,29.96,WSW,251,0.0,1.0,78,0.00,,,0.00,0,wxd,2015-01-30 07:40:00,
2015-01-30 02:45:00,43.2,36.5,29.96,WSW,251,0.0,0.0,77,0.00,,,0.00,0,wxd,2015-01-30 07:45:00,
2015-01-30 02:50:00,43.2,36.8,29.95,WSW,251,0.0,0.0,78,0.00,,,0.00,0,wxd,2015-01-30 07:50:00,
2015-01-30 02:55:00,43.1,36.4,29.95,WSW,251,0.0,1.0,77,0.00,,,0.00,0,wxd,2015-01-30 07:55:00,
2015-01-30 03:00:00,43.2,34.8,29.95,WSW,251,0.0,2.0,72,0.00,,,0.00,0,wxd,2015-01-30 08:00:00,
2015-01-30 03:05:00,43.9,34.4,29.96,WSW,251,1.0,2.0,69,0.00,,,0.00,0,wxd,2015-01-30 08:05:00,